Powrót do katalogu

STARLINK-33864

AktywnyŁącznośćVLEO
NORAD 63636·PAYLOAD·🇺🇸 United States

Wystrzelony Apr 25, 2025 z Cape Canaveral Space Force Station

Loading…

Następne Przeloty (najbliższe 24 godziny)

TLE

ŚwieżeSource: CelesTrak SupGP

Epoka: Sep 14, 2026, 21:07 UTC

1 63636C 25083C   26257.88034722  .00043744  00000+0  15843-2 0  2579
2 63636  43.0041  17.1602 0001991 272.1356 190.5286 15.27557377    12

Śledź STARLINK-33864 w czasie rzeczywistym z AllMySat

Download on the App Store